Skip Page Navigation
NASA JPL Caltech
NASA Logo - Jet Propulsion Laboratory + View the NASA Portal
+ Near-Earth Object (NEO) Program
Search JPL
JPL Home Earth Solar System Stars & Galaxies Technology
JPL Solar System Dynamics
BODIES ORBITS EPHEMERIDES TOOLS PHYSICAL DATA DISCOVERY FAQ SITE MAP
JPL Small-Body Database Browser
Search: [ help ]  
23238 Ocasio-Cortez (2000 WU111)
Classification: Main-belt Asteroid          SPK-ID: 2023238
Ephemeris | Orbit Diagram | Orbital Elements | Physical Parameters | Discovery Circumstances ]

[ show orbit diagram ]
Orbital Elements at Epoch 2456400.5 (2013-Apr-18.0) TDB
Reference: MPO253522 (heliocentric ecliptic J2000)
 Element Value Uncertainty (1-sigma)   Units 
e 0.1260482 n/a  
a 2.4598923 n/a AU
q 2.1498273 n/a AU
i 6.22685 n/a deg
node 6.18701 n/a deg
peri 277.73911 n/a deg
M 214.45315 n/a deg
tp 2456970.2349761
(2014-Nov-08.73497610)
n/a JED
period 1409.1997965
3.86
n/a
n/a
d
yr
n 0.25546413 n/a deg/d
Q 2.7699573 n/a AU
  Orbit Determination Parameters
   # obs. used (total)      760  
   first obs. used      1992-??-??  
   last obs. used      2013-02-16  
   # oppositions      14  
   planetary ephem.      DE403  
   condition code      0  
   fit RMS      0.57  
   data source      MPC:mpn  
   producer      MPCLINUX  

Additional Information
 T_jup = 3.471 

Ephemeris | Orbit Diagram | Orbital Elements | Physical Parameters | Discovery Circumstances ]

Physical Parameter Table
Parameter Symbol Value Units Sigma Reference Notes
absolute magnitude H 15.5 mag n/a PDS3 (MPO 10251)  

23238 Ocasio-Cortez           Discovered 2000 Nov. 20 by the Lincoln Laboratory Near-Earth Asteroid Research Team in Socorro.
Alexandria Ocasio-Cortez (b. 1989) was awarded second place in the 2007 Intel International Science and Engineering Fair for her microbiology project. She attends the Yorktown High School, Yorktown Heights, New York, U.S.A.
NOTE: some special characters may not display properly (any characters within {} are an attempt to place the proper accent above a character)
Reference: 20070828/MPCPages.arcLast Updated: 2007-08-30

Alternate Designations
 2000 WU111 = 1992 UB9 
Ephemeris | Orbit Diagram | Orbital Elements | Physical Parameters | Discovery Circumstances ]
ABOUT SSD CREDITS/AWARDS PRIVACY/COPYRIGHT GLOSSARY LINKS
FirstGov 2013-May-19 17:08 UT
(server date/time)  
NASA Home Page
Site Manager:   Donald K. Yeomans
Webmaster  Alan B. Chamberlin